Regional Weather Roundup
Issued by NWS Cleveland, OH

Home | Current Version | Previous Version | Text Only | Print | Product List | Glossary Off
Versions: 1 2 3 4 5 6 7 8 9 10 11 12 13 14 15 16 17 18 19 20 21 22 23 24 25 26 27 28 29 30 31 32 33 34 35 36 37 38 39 40 41 42 43 44 45 46 47 48 49 50

913
ASUS41 KCLE 251002
RWRCLE
OHIO REGIONAL WEATHER ROUNDUP
NATIONAL WEATHER SERVICE CLEVELAND, OH
600 AM EDT MON JUL 25 2016

NOTE: "FAIR" INDICATES FEW OR NO CLOUDS BELOW 12,000 FEET WITH NO
SIGNIFICANT WEATHER AND/OR OBSTRUCTIONS TO VISIBILITY.

OHZ001>008-015>018-024>027-034-035-043-044-251100-
   NORTHWEST OHIO

CITY           SKY/WX    TMP DP  RH WIND       PRES   REMARKS
DEFIANCE       PTCLDY    74  65  73 CALM      29.93F
FINDLAY        PTCLDY    78  72  81 W9        29.93S
TOLEDO EXPRESS MOCLDY    73  73 100 W6        29.93R
TOLEDO EXEC    MOCLDY    77  73  87 W6        29.92R
LIMA           CLOUDY    73  70  90 W7        29.95F
$$

OHZ009>014-019>023-028>033-038-089-251100-
   NORTHEAST OHIO

CITY           SKY/WX    TMP DP  RH WIND       PRES   REMARKS
CLE-HOPKINS    MOCLDY    79  71  76 S9        29.94F
CLE-LAKEFRONT  CLOUDY    82  72  71 SW13      29.90F
CUY CO. ARPT   NOT AVBL
LORAIN-ELYRIA  CLOUDY    75  71  87 SW7       29.93F
ASHTABULA      PTCLDY    76  72  87 SW9       29.94S
AKRON-CANTON   PTCLDY    74  70  87 SW6       29.98S
WOOSTER        PTCLDY    71  69  93 SW5       29.98S
MANSFIELD      PTCLDY    76  74  93 SW5       29.97F
YOUNGSTOWN     CLOUDY    73  69  87 S6        29.97S
$$

OHZ042-051>053-060>062-070>072-077>081-251100-
  SOUTHWEST OHIO

CITY           SKY/WX    TMP DP  RH WIND       PRES   REMARKS
CINC-COVINGTON MOCLDY    76  75  97 S7        29.99F FOG
CINC-LUNKEN    PTCLDY    76  76 100 CALM      29.98F
HAMILTON       PTCLDY    76  74  93 CALM      29.99S
DAYTON         CLOUDY    77  75  93 SW10      29.99R
WRIGHT-PAT AFB CLOUDY    79  77  95 SW8       29.97S
DAYTON GENERAL PTCLDY    78  73  84 SW3       29.98S
WILMINGTON     PTCLDY    75  74  96 SW6       29.99F
$$

OHZ036-037-039>041-045>050-054>059-063>069-073>076-082>088-251100-
  CENTRAL AND SOUTHEAST OHIO

CITY           SKY/WX    TMP DP  RH WIND       PRES   REMARKS
COLUMBUS       CLOUDY    76  74  93 CALM      29.97S
OSU AIRPORT    PTCLDY    78  74  87 S7        29.96F
BOLTON FIELD   MOCLDY    74  73  96 CALM      29.99R
RICKENBACK AFB MOCLDY    74  73  97 S5        29.97S FOG
NEWARK         CLEAR     74  72  93 CALM      29.97F
MARION         MOCLDY    73  71  93 S5        29.96F FOG
LANCASTER      CLOUDY    76  74  93 S3        29.99S
ZANESVILLE     CLEAR     77  72  84 S3        29.99S
NEW PHILLY     CLOUDY    75  70  84 CALM      29.99S
$$




USA.gov is the U.S. government's official web portal to all federal, state and local government web resources and services.